www.pogodaiklimat.ru

Погода и климат >> Архив погоды >> Панама >> Santiago


ПОГОДА в Santiago

  • Прогноз погоды в Santiago
  • Монитор погоды в Santiago
  • Климат города

АРХИВ ПОГОДЫ в Santiago

Время (UTC), дата Ветер
(напр.,м/с)
 
Видим.   Явления Облачность Т
(С)
Тd
(С)
f
(%)
Тe
(С)
Тes
(С)
Комфортность P
(гПа)
Po
(гПа)
Тmin
(С)
Tmax
(С)
R
(мм)
R24
(мм)
S
(см)
12 8.08 штиль 0 1000 м туман 10/4 150 м
[Sc Cs]
+23.8 +23.5 98 +32 +33 очень
душно
1008.4 998.4 +23.6 +34.2
15 8.08 штиль 0 20 км 9/3 360 м
[Cu med, cong Ac trans]
+27.0 +23.7 82 +37 +44 очень
душно
1009.9 1099.9
18 8.08 штиль 0 20 км 8/4 450 м
[Cu hum Ci fib]
+32.6 +24.2 61 +45 +60 опасность
перегрева
1010.3 1066.1 +23.6 +33.2
21 8.08 штиль 0 20 км 10/4 400 м
[Cu hum Ci fib]
+32.4 +23.7 60 +44 +49 опасность
перегрева
1008.3 998.3
00 9.08 штиль 0 9000 м осадки на расстоянии {туман} 10/4 400 м
[Cu hum Ac trans]
+27.6 +22.0 72 +36 +36 очень
душно
1008.3 998.3 +23.6 +33.6
12 9.08 штиль 0 8000 м дымка {морось} 10/4 300 м
[Frnb Ac lent]
+24.6 +23.2 92 +33 +33 очень
душно
1008.3 998.3 +24.6 +33.6 0.1
15 9.08 З 2 15 км осадки на расстоянии {туман} 10/4 360 м
[St Ac lent]
+28.0 +23.0 74 +37 +39 очень
душно
1010.3 1000.3
18 9.08 штиль 0 20 км гроза без осадков {метель} 10/5 360 м
[Cb calv Cs]
+30.8 +24.3 68 +43 +54 опасность
перегрева
1010.1 1000.1 +24.6 +32.0
00 10.08 штиль 0 15 км 9/3 300 м
[Sc diur, vesp As trans]
+23.4 +22.9 97 +33 +33 очень
душно
1009.4 999.4 +23.2 +32.0 4
12 10.08 штиль 0 15 км 8/4 240 м
[St Ac trans]
+22.8 +22.2 96 +31 +31 очень
душно
1011.6 1001.6 +23.2 +32.0
15 10.08 штиль 0 20 км 9/3 360 м
[Cu hum Ac trans]
+27.2 +23.9 82 +37 +44 очень
душно
1011.5 1001.5
18 10.08 штиль 0 20 км 10/4 450 м
[Cu hum Cs]
+29.2 +24.3 75 +41 +55 опасность
перегрева
1012.1 1002.1 +23.2 +29.8
21 10.08 штиль 0 20 км 9/3 450 м
[Cu hum]
+31.0 +24.2 67 +43 +47 опасность
перегрева
1010.4 1000.4
00 11.08 штиль 0 20 км 10/4 360 м
[Cu med, cong Ci ing]
+28.4 +25.2 83 +41 +41 опасность
перегрева
1011.1 1001.1 +23.2 +31.8
12 11.08 штиль 0 1000 м туман 8/8 150 м
[Cu Sc]
+24.8 +24.5 98 +35 +35 очень
душно
1010.1 1000.1 +24.6 +31.8
15 11.08 штиль 0 20 км 4/4 450 м
[Cu Sc]
+29.2 +24.3 75 +41 +53 опасность
перегрева
1011.6 1001.6
18 11.08 штиль 0 20 км 4/4 450 м
[Cu hum]
+33.0 +23.5 58 +44 +62 опасность
перегрева
1011.6 1001.6 +24.6 +33.8
21 11.08 штиль 0 20 км 5/5 600 м
[Cu med, cong]
+33.2 +23.7 58 +45 +50 опасность
перегрева
1010.6 1000.6
00 12.08 штиль 0 20 км 9/5 360 м
[Cb calv Ci fib]
+27.4 +24.2 83 +38 +38 очень
душно
1010.4 1000.4 +24.6 +34.8
12 12.08 штиль 0 1000 м туман 6/1 150 м
[St Ci fib]
+23.6 +23.9 100 +32 +33 очень
душно
1011.2 1001.2 +23.6 +34.8
15 12.08 штиль 0 20 км 8/4 450 м
[Cu med, cong Ci fib]
+29.0 +24.7 78 +41 +52 опасность
перегрева
1011.7 1001.7
18 12.08 штиль 0 20 км 10/5 450 м
[Cu med, cong Ci ing]
+32.2 +23.8 61 +44 +55 опасность
перегрева
1011.9 1001.9 +23.6 +32.8
21 12.08 штиль 0 20 км 10/4 600 м
[Cu hum Cs]
+32.2 +23.8 61 +44 +49 опасность
перегрева
1010.5 1000.5
00 13.08 штиль 0 20 км 10/3 450 м
[Sc diur, vesp As op]
+28.0 +23.0 74 +37 +37 очень
душно
1010.2 1000.2 +23.6 +32.8
12 13.08 штиль 0 20 км 10/4 240 м
[St Ac trans]
+24.4 +23.9 97 +33 +34 очень
душно
1011.1 1001.1 +23.6 +32.8
15 13.08 штиль 0 15 км осадки на расстоянии 10/4 360 м
[St Ac lent]
+28.0 +23.9 78 +39 +41 очень
душно
1011.9 1001.9
18 13.08 штиль 0 20 км 10/4 450 м
[Cu med, cong As trans]
+29.6 +24.7 75 +42 +49 опасность
перегрева
1011.4 1001.4 +23.6 +30.4
21 13.08 Ю 2 5000 м гроза без осадков 10/5 300 м
[Cb calv As op]
+29.0 +24.7 78 +41 +42 опасность
перегрева
1010.6 1000.6
00 14.08 штиль 0 5000 м слабый дождь {гроза} 10/4 150 м
[Frnb As op]
+24.2 +23.3 95 +32 +32 очень
душно
1010.6 1000.6 +23.6 +30.8 4
12 14.08 штиль 0 15 км 8/3 240 м
[St Ac trans]
+23.0 +22.5 97 +32 +32 очень
душно
1011.9 1001.9 +23.6 +30.8 1
15 14.08 Ю 3 15 км осадки на расстоянии 10/4 360 м
[Cu hum Ac trans]
+26.6 +23.9 85 +37 +39 очень
душно
1012.1 1002.1
18 14.08 штиль 0 20 км 10/6 450 м
[Cu med, cong Ac trans]
+27.4 +24.2 83 +38 +43 очень
душно
1012.4 1002.4 +23.6 +27.6
21 14.08 штиль 0 20 км 10/4 450 м
[Cu hum As op]
+24.8 +22.9 89 +33 +34 очень
душно
1012.1 1002.1
00 15.08 штиль 0 20 км 10/1 300 м
[Sc As op]
+23.4 +22.9 97 +33 +33 очень
душно
1011.5 1001.5 +23.0 +28.2

 

Местоположение метеостанции Santiago (Панама): широта 8.08 долгота -80.95 высота над уровнем моря 88 м.

В архиве по умолчанию представлена погода в Santiago за последнюю неделю. Архивные данные за месяц целиком и за предыдущие месяцы, начиная с января 2011 года, Вы можете получить, выбрав интересующий диапазон дат из раскрывающегося списка и нажав кнопку "Ввод!".


*Определитесь, кто Вы:
робот инопланетянин человек

Внимание! Время в таблицах - всемирное. Для получения местного времени необходимо прибавить поправку, которая в Santiago равна -5 ч.

Смотрите также архив погоды в соседних городах и на ближайших метеорологических станциях:

Погода в David (Панама) (165 км)
Погода в Puerto Limon (Коста-Рика) (314 км)
Погода в San Jose Airport (Коста-Рика) (408 км)
Погода в San Jose (Коста-Рика) (416 км)
Погода в Apartado (Колумбия) (469 км)
Погода в San Andres Isla (Колумбия) (507 км)
Погода в Bluefields (Никарагуа) (534 км)
Погода в Quibdo (Колумбия) (546 км)
Погода в Liberia (Коста-Рика) (567 км)
Погода в Monteria (Колумбия) (567 км)

Пояснения к столбцам:

Ветер - указаны скорость ветра в м/с - средняя за 10 мин, порывы в срок и между сроками (в фигурных скобках) и направление, откуда дует ветер: С - северный, СВ - северо-восточный, В - восточный, ЮВ - юго-восточный, Ю - южный, ЮЗ - юго-западный, З - западный, СЗ - северо-западный.
Видимость - горизонтальная дальность видимости в метрах или километрах. При видимости от 1 до 10 км при отсутствии осадков обычно наблюдается дымка, при ухудшении видимости до 1 км и менее - туман. В сухую погоду видимость может ухудшаться дымом, пылью или мглою.
Явления - указаны атмосферные явления, наблюдавшиеся в срок или в последний час перед сроком; фигурными скобками обозначены явления, наблюдавшиеся между сроками (за 1-3 часа до срока); квадратными скобками обозначены град или гололедные отложения с указанием их диаметра в мм.
Облачность - указаны через наклонную черту общая и нижняя облачность в баллах и высота нижней границы облаков в метрах; квадратными скобками обозначены формы облаков: Ci - перистые, Cs - перисто-слоистые, Cc - перисто-кучевые, Ac - высококучевые, As - высокослоистые, Sc - слоисто-кучевые, Ns - слоисто-дождевые, Cu - кучевые, Cb - кучево-дождевые. Подробнее классификацию облаков см. в Атласе облаков (PDF).
T - Температура воздуха - температура, измеренная на высоте 2 м над землей.
Td - Температура точки росы - температура, при понижении до которой содержащийся в воздухе водяной пар достигнет насыщения.
f - Относительная влажность воздуха - влажноcть воздуха, измеренная на высоте 2 м над землей.
Te - Эффективная температура - температура, которую ощущает одетый по сезону человек в тени. Характеристика душности погоды. При расчете учитывается влияние влажности воздуха и скорости ветра на теплоощущения человека.
Tes - Эффективная температура на солнце - температура, которую ощущает человек, с поправкой на солнечный нагрев. Характеристика знойности погоды. Зависит от высоты солнца над горизонтом, облачности и скорости ветра. Ночью, в пасмурную погоду, а также при ветре 12 м/с и более поправка равна нулю.
P - Атмосферное давление - приведенное к уровню моря атмосферное давление.
Po - Атмосферное давление - измеренное на уровне метеостанции атмосферное давление.
Tmin - Минимальная температура - минимум температуры воздуха на высоте 2 м над землей.
Tmax - Максимальная температура - максимум температуры воздуха на высоте 2 м над землей.
R - Количество осадков - Количество выпавших осадков за период времени, мм. При наведении курсора мыши на число - период времени, за который выпало указанное количество осадков.
R24 - Количество осадков - Количество выпавших осадков за 24 часа, мм.
S - Снежный покров - Высота снежного покрова, см. При наведении курсора мыши на число - состояние снежного покрова и степень покрытия местности в баллах.